• In Uzbekistan
  • List of Countries
  • For 7 days
  • Water Temperature
  • Satellite Maps
  • Weather Map
  • Weather Widgets
  • user-avatar
    Login

    Hourly Weather Palesnica

    Today, 18 July, Wednesday

    Time Temperature Precipitation Wind Pressure Humidity
    00:00 +18°C° 0.2 mm 3 mps 731 mmHg 96%
    01:00 +18°C° 0.2 mm 3 mps 731 mmHg 96%
    02:00 +18°C° 0.1 mm 3 mps 731 mmHg 97%
    03:00 +18°C° 0.1 mm 3 mps 730 mmHg 97%
    04:00 +18°C° 0.1 mm 3 mps 730 mmHg 97%
    05:00 +18°C° 0.2 mm 3 mps 731 mmHg 96%
    06:00 +18°C° 0.2 mm 2 mps 731 mmHg 95%
    07:00 +19°C° 0.2 mm 2 mps 731 mmHg 95%
    08:00 +19°C° 0.3 mm 2 mps 731 mmHg 93%
    09:00 +20°C° 0.3 mm 2 mps 731 mmHg 91%
    10:00 +20°C° 0.3 mm 2 mps 731 mmHg 90%
    11:00 +21°C° 0.2 mm 2 mps 731 mmHg 86%
    12:00 +22°C° 0.2 mm 3 mps 731 mmHg 82%
    13:00 +22°C° 0.2 mm 3 mps 731 mmHg 79%
    14:00 +24°C° 0.1 mm 3 mps 731 mmHg 77%
    15:00 +24°C° 0.1 mm 3 mps 731 mmHg 76%
    16:00 +25°C° 0.1 mm 4 mps 731 mmHg 75%
    17:00 +24°C° 0.4 mm 3 mps 731 mmHg 80%
    18:00 +22°C° 0.4 mm 3 mps 731 mmHg 85%
    19:00 +21°C° 0.4 mm 3 mps 731 mmHg 90%
    20:00 +21°C° 0.9 mm 2 mps 731 mmHg 92%
    21:00 +20°C° 0.9 mm 2 mps 732 mmHg 94%
    22:00 +19°C° 0.9 mm 2 mps 732 mmHg 96%
    23:00 +19°C° 0.5 mm 3 mps 732 mmHg 97%

    Tomorrow, 19 July, Thursday

    Time Temperature Precipitation Wind Pressure Humidity
    00:00 +20°C° 0.5 mm 3 mps 732 mmHg 97%
    01:00 +20°C° 0.5 mm 4 mps 732 mmHg 97%
    02:00 +20°C° 0.5 mm 4 mps 733 mmHg 97%
    03:00 +20°C° 0.5 mm 4 mps 733 mmHg 97%
    04:00 +20°C° 0.5 mm 4 mps 733 mmHg 97%
    05:00 +20°C° 0.7 mm 4 mps 733 mmHg 96%
    06:00 +20°C° 0.7 mm 4 mps 734 mmHg 96%
    07:00 +20°C° 0.7 mm 4 mps 734 mmHg 95%
    08:00 +20°C° 0.5 mm 4 mps 734 mmHg 94%
    09:00 +21°C° 0.5 mm 4 mps 734 mmHg 93%
    10:00 +21°C° 0.5 mm 4 mps 735 mmHg 92%
    11:00 +21°C° 0.4 mm 4 mps 735 mmHg 91%
    12:00 +21°C° 0.4 mm 4 mps 735 mmHg 90%
    13:00 +21°C° 0.4 mm 5 mps 735 mmHg 89%
    14:00 +21°C° 0.3 mm 5 mps 735 mmHg 88%
    15:00 +21°C° 0.3 mm 5 mps 735 mmHg 87%
    16:00 +22°C° 0.3 mm 5 mps 735 mmHg 86%
    17:00 +21°C° 0.2 mm 5 mps 735 mmHg 88%
    18:00 +20°C° 0.2 mm 4 mps 735 mmHg 90%
    19:00 +20°C° 0.2 mm 4 mps 735 mmHg 92%
    20:00 +19°C° 0.1 mm 4 mps 736 mmHg 93%
    21:00 +19°C° 0.1 mm 4 mps 736 mmHg 94%
    22:00 +18°C° 0.1 mm 4 mps 736 mmHg 96%
    23:00 +18°C° 0 mm 4 mps 736 mmHg 96%

    Day after tomorrow, 20 July, Friday

    Time Temperature Precipitation Wind Pressure Humidity
    00:00 +18°C° 0 mm 3 mps 736 mmHg 97%
    01:00 +18°C° 0 mm 3 mps 736 mmHg 97%
    02:00 +17°C° 0 mm 3 mps 736 mmHg 97%
    03:00 +17°C° 0 mm 3 mps 736 mmHg 97%
    04:00 +17°C° 0 mm 3 mps 736 mmHg 96%
    05:00 +18°C° 0 mm 3 mps 736 mmHg 95%
    06:00 +19°C° 0 mm 3 mps 736 mmHg 93%
    07:00 +19°C° 0 mm 4 mps 736 mmHg 92%
    08:00 +20°C° 0 mm 4 mps 736 mmHg 87%
    09:00 +21°C° 0 mm 4 mps 737 mmHg 83%
    10:00 +22°C° 0 mm 4 mps 737 mmHg 78%
    11:00 +23°C° 0.2 mm 4 mps 736 mmHg 73%
    12:00 +25°C° 0.2 mm 4 mps 736 mmHg 68%
    13:00 +26°C° 0.2 mm 4 mps 736 mmHg 62%
    14:00 +26°C° 0.1 mm 4 mps 736 mmHg 63%
    15:00 +26°C° 0.1 mm 4 mps 736 mmHg 64%
    16:00 +26°C° 0.1 mm 4 mps 736 mmHg 65%
    17:00 +25°C° 0.2 mm 3 mps 736 mmHg 72%
    18:00 +22°C° 0.2 mm 3 mps 736 mmHg 78%
    19:00 +21°C° 0.2 mm 2 mps 736 mmHg 85%
    20:00 +20°C° 0.1 mm 2 mps 736 mmHg 88%
    21:00 +19°C° 0.1 mm 2 mps 736 mmHg 90%
    22:00 +18°C° 0.1 mm 2 mps 736 mmHg 93%
    23:00 +18°C° 0 mm 2 mps 736 mmHg 93%

    21 July, Saturday

    Time Temperature Precipitation Wind Pressure Humidity
    00:00 +17°C° 0 mm 2 mps 736 mmHg 94%
    01:00 +17°C° 0 mm 2 mps 736 mmHg 94%
    02:00 +17°C° 0 mm 2 mps 736 mmHg 95%
    03:00 +16°C° 0 mm 1 mps 736 mmHg 95%
    04:00 +16°C° 0 mm 1 mps 736 mmHg 95%
    05:00 +19°C° 0 mm 1 mps 736 mmHg 91%
    06:00 +20°C° 0 mm 1 mps 736 mmHg 87%
    07:00 +22°C° 0 mm 1 mps 736 mmHg 83%
    08:00 +23°C° 0 mm 1 mps 736 mmHg 76%
    09:00 +25°C° 0 mm 1 mps 736 mmHg 69%
    10:00 +26°C° 0 mm 1 mps 736 mmHg 62%
    11:00 +27°C° 0 mm 1 mps 736 mmHg 60%
    12:00 +27°C° 0 mm 1 mps 735 mmHg 58%
    13:00 +27°C° 0 mm 1 mps 735 mmHg 56%
    14:00 +27°C° 0.1 mm 1 mps 735 mmHg 58%
    15:00 +27°C° 0.1 mm 1 mps 735 mmHg 60%
    16:00 +27°C° 0.1 mm 1 mps 735 mmHg 61%
    17:00 +26°C° 0.4 mm 1 mps 735 mmHg 67%
    18:00 +24°C° 0.4 mm 1 mps 735 mmHg 72%
    19:00 +23°C° 0.4 mm 1 mps 735 mmHg 77%
    20:00 +22°C° 0.1 mm 1 mps 734 mmHg 80%
    21:00 +21°C° 0.1 mm 1 mps 734 mmHg 82%
    22:00 +20°C° 0.1 mm 1 mps 734 mmHg 84%
    23:00 +17°C° 0 mm 0 mps 734 mmHg 86%

    22 July, Sunday

    Time Temperature Precipitation Wind Pressure Humidity
    00:00 +17°C° 0 mm 0 mps 734 mmHg 87%
    01:00 +16°C° 0 mm 0 mps 734 mmHg 89%
    02:00 +16°C° 0 mm 0 mps 734 mmHg 89%
    03:00 +16°C° 0 mm 0 mps 734 mmHg 90%
    04:00 +15°C° 0 mm 0 mps 734 mmHg 91%
    05:00 +17°C° 0 mm 0 mps 734 mmHg 88%
    06:00 +20°C° 0 mm 1 mps 734 mmHg 84%
    07:00 +22°C° 0 mm 1 mps 734 mmHg 81%
    08:00 +23°C° 0.3 mm 1 mps 734 mmHg 78%
    09:00 +24°C° 0.3 mm 2 mps 734 mmHg 76%
    10:00 +25°C° 0.3 mm 2 mps 734 mmHg 73%
    11:00 +25°C° 0.6 mm 2 mps 734 mmHg 72%
    12:00 +26°C° 0.6 mm 2 mps 733 mmHg 71%
    13:00 +26°C° 0.6 mm 2 mps 733 mmHg 70%
    14:00 +26°C° 0.8 mm 2 mps 733 mmHg 70%
    15:00 +26°C° 0.8 mm 2 mps 733 mmHg 71%
    16:00 +26°C° 0.8 mm 2 mps 733 mmHg 71%
    17:00 +25°C° 0.4 mm 1 mps 733 mmHg 74%
    18:00 +24°C° 0.4 mm 1 mps 733 mmHg 77%
    19:00 +23°C° 0.4 mm 1 mps 733 mmHg 80%
    20:00 +22°C° 0 mm 1 mps 733 mmHg 82%
    21:00 +21°C° 0 mm 1 mps 734 mmHg 84%
    22:00 +19°C° 0 mm 2 mps 734 mmHg 85%
    23:00 +18°C° 0 mm 2 mps 734 mmHg 87%

    23 July, Monday

    Time Temperature Precipitation Wind Pressure Humidity
    00:00 +18°C° 0 mm 2 mps 734 mmHg 89%
    01:00 +18°C° 0 mm 1 mps 734 mmHg 91%
    02:00 +18°C° 0 mm 1 mps 734 mmHg 92%
    03:00 +18°C° 0 mm 1 mps 735 mmHg 94%
    04:00 +16°C° 0 mm 1 mps 735 mmHg 95%
    05:00 +17°C° 0.1 mm 2 mps 735 mmHg 93%
    06:00 +19°C° 0.1 mm 3 mps 735 mmHg 91%
    07:00 +20°C° 0.1 mm 3 mps 736 mmHg 90%
    08:00 +21°C° 0.1 mm 4 mps 736 mmHg 83%
    09:00 +22°C° 0.1 mm 4 mps 736 mmHg 77%
    10:00 +23°C° 0.1 mm 5 mps 736 mmHg 71%
    11:00 +25°C° 0.1 mm 5 mps 736 mmHg 65%
    12:00 +25°C° 0.1 mm 5 mps 736 mmHg 60%
    13:00 +26°C° 0.1 mm 5 mps 736 mmHg 55%
    14:00 +26°C° 0 mm 5 mps 736 mmHg 56%
    15:00 +26°C° 0 mm 5 mps 736 mmHg 57%
    16:00 +26°C° 0 mm 5 mps 736 mmHg 59%
    17:00 +23°C° 0 mm 4 mps 736 mmHg 66%
    18:00 +22°C° 0 mm 3 mps 736 mmHg 72%
    19:00 +20°C° 0 mm 3 mps 736 mmHg 79%
    20:00 +19°C° 0 mm 2 mps 736 mmHg 82%
    21:00 +18°C° 0 mm 2 mps 736 mmHg 85%
    22:00 +17°C° 0 mm 2 mps 737 mmHg 88%
    23:00 +17°C° 0 mm 2 mps 737 mmHg 90%
    Show more